This is the latest recevied weather packets stored in our database for station/object HB9TJM-8. If no packets are shown the sender has not sent any weather packets the latest 10 day(s).
| Time | Temp. | Humidity | Pressure | Rain* | Wind** | Luminosity | Snow |
|---|---|---|---|---|---|---|---|
| 1777364146 | 12.78° C | 56% | 1016.8 hPa | 0 mm | - | 174 W/m² | - |
| 1777364145 | 12.78° C | 56% | 1016.8 hPa | 0 mm | - | 174 W/m² | - |
| 1777363838 | 13.33° C | 56% | 1016.2 hPa | 0 mm | - | 212 W/m² | - |
| 1777363838 | 13.33° C | 56% | 1016.2 hPa | 0 mm | - | 212 W/m² | - |
| 1777363531 | 12.78° C | 58% | 1016.3 hPa | 0 mm | - | 310 W/m² | - |
| 1777363530 | 12.78° C | 58% | 1016.3 hPa | 0 mm | - | 310 W/m² | - |
| 1777363223 | 12.78° C | 55% | 1016.2 hPa | 0 mm | - | 327 W/m² | - |
| 1777363223 | 12.78° C | 55% | 1016.2 hPa | 0 mm | - | 327 W/m² | - |
| 1777362916 | 12.78° C | 52% | 1016.3 hPa | 0 mm | - | 301 W/m² | - |
| 1777362609 | 12.78° C | 52% | 1016.4 hPa | 0 mm | - | 298 W/m² | - |
| 1777362301 | 12.78° C | 52% | 1016.1 hPa | 0 mm | - | 218 W/m² | - |
| 1777362301 | 12.78° C | 52% | 1016.1 hPa | 0 mm | - | 218 W/m² | - |
| 1777361994 | 12.22° C | 54% | 1016.2 hPa | 0 mm | - | 164 W/m² | - |
| 1777361994 | 12.22° C | 54% | 1016.2 hPa | 0 mm | - | 164 W/m² | - |
| 1777361686 | 12.22° C | 54% | 1016.1 hPa | 0 mm | - | 142 W/m² | - |
| 1777361686 | 12.22° C | 54% | 1016.1 hPa | 0 mm | - | 142 W/m² | - |
| 1777361379 | 11.67° C | 55% | 1016.5 hPa | 0 mm | - | 115 W/m² | - |
| 1777361378 | 11.67° C | 55% | 1016.5 hPa | 0 mm | - | 115 W/m² | - |
| 1777361071 | 11.67° C | 54% | 1016 hPa | 0 mm | - | 108 W/m² | - |
| 1777361071 | 11.67° C | 54% | 1016 hPa | 0 mm | - | 108 W/m² | - |
| 1777360764 | 11.67° C | 54% | 1016.1 hPa | 0 mm | - | 142 W/m² | - |
| 1777360763 | 11.67° C | 54% | 1016.1 hPa | 0 mm | - | 142 W/m² | - |
| 1777360456 | 11.67° C | 56% | 1016 hPa | 0 mm | - | 146 W/m² | - |
| 1777360149 | 11.67° C | 52% | 1016.3 hPa | 0 mm | - | 170 W/m² | - |
| 1777360148 | 11.67° C | 52% | 1016.3 hPa | 0 mm | - | 170 W/m² | - |
* Rain latest hour (hover to see other rain measurements)
** Current wind speed in m/s (hover to see current wind gust speed)